Location: Marcé
(47.5801°N, 0.3280°W)
Time: 10:53:54
(UTC+02:00)

X-37B - Pass Details

Date: 22 September 2023
Orbit: 277 x 277 km, 45.0° (Epoch: 01 November)

Event Time Altitude Azimuth Distance (km) Brightness Sun altitude
Exits shadow 06:19:42 41° 183° (S) 418 0.5 -15.4°
Maximum altitude 06:19:49 41° 174° (S) 415 0.6 -15.3°
Drops below altitude 10° 06:22:10 10° 101° (E) 1,102 3.9 -15.0°
Sets 06:24:08 0° 94° (E) 1,916 5.5 -14.7°
